Volver al catálogo

TITAN 3C TRANSTAGE R/B

ActivoMEO
NORAD 3692·ROCKET BODY·🇺🇸 United States

Lanzado Feb 9, 1969 desde Cape Canaveral Space Force Station

Loading…

Próximos Pases (próximas 24 horas)

TLE

ActualizadoSource: Space-Track

Época: Sep 14, 2026, 13:48 UTC

1 03692U 69013B   26257.57501435 -.00000257  00000-0  00000-0 0  9996
2 03692   1.5396  77.4316 0164649  39.3013  81.5308  0.97536746 43192

Sigue TITAN 3C TRANSTAGE R/B en tiempo real con AllMySat

Download on the App Store